Flag for U.S.A. Weather past 2 weeks in Paterson, New Jersey, U.S.A.

Now
75 °F

Overcast.


Feels Like: 76 °F
Forecast: 69 / 84 °F
Wind: 5 mph from North

Location: Essex County Airport

Current Time: May 27, 2015 at 12:06:43 PM

Latest Report: May 27, 2015 at 10:53 AM


Visibility: 9 mi

Pressure: 30.19 "Hg

Humidity: 76%

Dew point: 67 °F

Location of PatersonLocation

Historic Weather in Paterson — Graph

°F

Paterson temperature yesterday

Maximum temperature yesterday: 87 °F (at 2:53 PM)
Minimum temperature yesterday: 64 °F (at 5:53 AM)
Average temperature yesterday: 77 °F

Past Weeks' High & Low Weather Summary

 TemperatureHumidityPressure
High87 °F (May 26, 2:53 PM)94% (May 17, 4:53 AM)30.44 "Hg (May 17, 4:53 AM)
Low42 °F (May 14, 5:53 AM)17% (May 14, 3:53 PM)29.77 "Hg (May 12, 6:53 PM)
Average65 °F54%30.14 "Hg
* Reported May 12 10:53 AM — May 27 10:53 AM, Paterson, Weather by CustomWeather, © 2015

Note: Actual official high and low records may vary slightly from our data, if they occured in-between our weather recording intervals... More about our weather records

Advertising

Paterson weather history for previous 24 hours

 ConditionsComfort  
Time TempWeatherWind HumidityBarometerVisibility
10:53 AM
Wed, May 27
75 °FOvercast.5 mph76%30.19 "Hg9 mi
9:53 AM73 °FOvercast.No wind79%30.18 "Hg8 mi
8:53 AM71 °FOvercast.6 mph81%30.19 "Hg9 mi
7:53 AM71 °FOvercast.5 mph78%30.18 "Hg10 mi
6:53 AM70 °FOvercast.3 mph79%30.18 "Hg10 mi
5:53 AM69 °FClear.No wind79%30.17 "Hg10 mi
4:53 AM69 °FClear.3 mph79%30.16 "Hg10 mi
3:53 AM69 °FClear.5 mph76%30.15 "Hg10 mi
2:53 AM70 °FClear.No wind73%30.16 "Hg10 mi
1:53 AM72 °FClear.5 mph71%30.16 "Hg10 mi
12:53 AM73 °FPassing clouds.5 mph69%30.16 "Hg10 mi
11:53 PM
Tue, May 26
74 °FPassing clouds.5 mph67%30.17 "Hg10 mi
10:53 PM77 °FClear.8 mph60%30.16 "Hg10 mi
9:53 PM78 °FClear.6 mph60%30.15 "Hg10 mi
8:53 PM82 °FSunny.5 mph46%30.13 "Hg10 mi
7:53 PM84 °FSunny.5 mph45%30.12 "Hg10 mi
6:53 PM86 °FSunny.5 mph40%30.13 "Hg10 mi
5:53 PM87 °FSunny.6 mph40%30.14 "Hg10 mi
4:53 PM87 °FPassing clouds.7 mph40%30.14 "Hg10 mi
3:53 PM87 °FSunny.No wind40%30.14 "Hg10 mi
2:53 PM87 °FSunny.8 mph42%30.16 "Hg10 mi
1:53 PM86 °FSunny.6 mph43%30.18 "Hg10 mi
12:53 PM84 °FSunny.8 mph46%30.20 "Hg10 mi
Weather by CustomWeather, © 2015

See weather overviewHow to use our weather pages